TimeCDT,TemperatureF,Dew PointF,Humidity,Sea Level PressureIn,VisibilityMPH,Wind Direction,Wind SpeedMPH,Gust SpeedMPH,PrecipitationIn,Events,Conditions,WindDirDegrees,DateUTC
12:15 AM,49.1,33.4,55,30.14,10.0,SSW,6.9,-,N/A,,Clear,200,2013-03-15 05:15:00
12:35 AM,47.1,32.5,57,30.13,10.0,SW,8.1,-,N/A,,Clear,220,2013-03-15 05:35:00
12:55 AM,47.1,32.9,58,30.12,10.0,SSW,8.1,-,N/A,,Clear,210,2013-03-15 05:55:00
1:15 AM,44.2,33.3,65,30.10,10.0,South,6.9,-,N/A,,Clear,180,2013-03-15 06:15:00
1:35 AM,45.5,33.1,62,30.10,10.0,South,6.9,-,N/A,,Clear,190,2013-03-15 06:35:00
1:55 AM,43.9,32.9,65,30.10,10.0,SSW,6.9,-,N/A,,Clear,210,2013-03-15 06:55:00
2:15 AM,44.1,32.7,64,30.09,10.0,SSW,9.2,-,N/A,,Clear,210,2013-03-15 07:15:00
2:35 AM,44.8,34.5,67,30.08,10.0,SW,9.2,-,N/A,,Clear,230,2013-03-15 07:35:00
2:55 AM,47.1,35.6,64,30.08,10.0,SW,9.2,-,N/A,,Clear,230,2013-03-15 07:55:00
3:15 AM,45.9,34.9,66,30.08,10.0,West,9.2,-,N/A,,Clear,260,2013-03-15 08:15:00
3:35 AM,43.3,33.4,68,30.07,10.0,West,6.9,-,N/A,,Clear,260,2013-03-15 08:35:00
4:15 AM,43.9,33.1,66,30.06,10.0,WSW,8.1,-,N/A,,Clear,250,2013-03-15 09:15:00
4:35 AM,43.5,33.6,68,30.05,10.0,WSW,6.9,-,N/A,,Clear,250,2013-03-15 09:35:00
4:55 AM,43.7,33.3,67,30.04,10.0,West,6.9,-,N/A,,Clear,260,2013-03-15 09:55:00
5:15 AM,44.2,34.3,68,30.03,10.0,WSW,6.9,-,N/A,,Clear,250,2013-03-15 10:15:00
5:35 AM,43.9,33.8,68,30.03,10.0,WSW,5.8,-,N/A,,Clear,250,2013-03-15 10:35:00
5:55 AM,43.0,32.7,67,30.03,10.0,WSW,4.6,-,N/A,,Clear,250,2013-03-15 10:55:00
6:15 AM,44.4,33.3,65,30.03,10.0,West,6.9,-,N/A,,Clear,260,2013-03-15 11:15:00
6:35 AM,41.9,32.5,69,30.03,10.0,WSW,9.2,-,N/A,,Clear,250,2013-03-15 11:35:00
6:55 AM,44.6,33.8,66,30.02,10.0,WSW,9.2,-,N/A,,Clear,250,2013-03-15 11:55:00
7:15 AM,45.0,34.0,65,30.02,10.0,WSW,10.4,-,N/A,,Clear,250,2013-03-15 12:15:00
7:35 AM,46.4,34.0,62,30.02,10.0,WSW,11.5,-,N/A,,Clear,250,2013-03-15 12:35:00
7:55 AM,48.0,32.5,55,30.02,10.0,WSW,10.4,-,N/A,,Clear,250,2013-03-15 12:55:00
8:15 AM,47.5,31.8,55,30.02,10.0,West,10.4,-,N/A,,Clear,260,2013-03-15 13:15:00
8:35 AM,48.0,32.0,54,30.01,10.0,West,9.2,-,N/A,,Clear,260,2013-03-15 13:35:00
8:55 AM,50.9,32.0,48,30.02,10.0,West,12.7,-,N/A,,Clear,260,2013-03-15 13:55:00
9:15 AM,52.7,32.2,46,30.02,10.0,West,8.1,-,N/A,,Clear,260,2013-03-15 14:15:00
9:35 AM,57.9,32.0,37,30.01,10.0,WSW,6.9,-,N/A,,Clear,240,2013-03-15 14:35:00
10:55 AM,70.0,31.3,24,29.99,10.0,WSW,16.1,21.9,N/A,,Clear,240,2013-03-15 15:55:00
11:15 AM,72.9,31.5,22,29.99,10.0,WSW,16.1,-,N/A,,Clear,250,2013-03-15 16:15:00
11:35 AM,75.9,30.6,19,29.98,10.0,WSW,16.1,21.9,N/A,,Clear,240,2013-03-15 16:35:00
11:55 AM,77.0,28.6,17,29.97,10.0,WSW,21.9,-,N/A,,Clear,250,2013-03-15 16:55:00
12:15 PM,79.0,28.6,16,29.96,10.0,WSW,19.6,25.3,N/A,,Clear,240,2013-03-15 17:15:00
12:35 PM,80.6,27.1,14,29.94,10.0,WSW,19.6,25.3,N/A,,Clear,250,2013-03-15 17:35:00
12:55 PM,81.7,26.1,13,29.94,10.0,WSW,20.7,24.2,N/A,,Clear,250,2013-03-15 17:55:00
1:15 PM,82.6,25.9,13,29.93,10.0,WSW,18.4,23.0,N/A,,Clear,240,2013-03-15 18:15:00
1:35 PM,83.1,25.3,12,29.92,10.0,WSW,17.3,25.3,N/A,,Clear,240,2013-03-15 18:35:00
1:55 PM,83.5,25.3,12,29.91,10.0,West,16.1,20.7,N/A,,Clear,270,2013-03-15 18:55:00
2:15 PM,83.1,24.8,12,29.90,10.0,West,9.2,17.3,N/A,,Clear,270,2013-03-15 19:15:00
2:35 PM,83.1,23.0,11,29.90,10.0,West,9.2,19.6,N/A,,Clear,280,2013-03-15 19:35:00
2:55 PM,84.0,23.2,11,29.88,10.0,WNW,5.8,10.4,N/A,,Clear,290,2013-03-15 19:55:00
3:15 PM,85.1,22.5,10,29.87,10.0,WSW,9.2,17.3,N/A,,Clear,250,2013-03-15 20:15:00
3:35 PM,85.5,22.5,10,29.85,10.0,WSW,11.5,17.3,N/A,,Clear,250,2013-03-15 20:35:00
3:55 PM,86.5,23.0,10,29.85,10.0,West,11.5,16.1,N/A,,Clear,260,2013-03-15 20:55:00
4:15 PM,86.2,22.1,10,29.84,10.0,WSW,9.2,17.3,N/A,,Clear,240,2013-03-15 21:15:00
4:35 PM,86.0,20.7,9,29.83,10.0,West,9.2,-,N/A,,Clear,260,2013-03-15 21:35:00
4:55 PM,86.5,19.0,8,29.83,10.0,WNW,5.8,-,N/A,,Clear,300,2013-03-15 21:55:00
5:15 PM,85.1,20.3,9,29.82,10.0,WSW,4.6,-,N/A,,Clear,250,2013-03-15 22:15:00
5:35 PM,84.2,19.6,9,29.82,10.0,West,6.9,-,N/A,,Clear,270,2013-03-15 22:35:00
5:55 PM,83.3,20.5,10,29.81,10.0,SW,5.8,-,N/A,,Clear,230,2013-03-15 22:55:00
6:15 PM,82.0,22.1,11,29.81,10.0,SW,4.6,-,N/A,,Clear,220,2013-03-15 23:15:00
6:35 PM,81.0,21.7,11,29.80,10.0,SW,5.8,-,N/A,,Clear,220,2013-03-15 23:35:00
6:55 PM,80.4,26.6,14,29.80,10.0,South,5.8,-,N/A,,Clear,190,2013-03-15 23:55:00
7:15 PM,80.2,26.6,14,29.80,10.0,South,9.2,-,N/A,,Clear,190,2013-03-16 00:15:00
7:35 PM,74.7,28.2,18,29.80,10.0,South,6.9,-,N/A,,Clear,190,2013-03-16 00:35:00
7:55 PM,71.4,30.4,22,29.80,10.0,South,8.1,-,N/A,,Clear,190,2013-03-16 00:55:00
8:15 PM,67.3,30.7,26,29.80,10.0,South,6.9,-,N/A,,Clear,190,2013-03-16 01:15:00
8:35 PM,63.9,30.4,28,29.79,10.0,South,8.1,-,N/A,,Clear,180,2013-03-16 01:35:00
8:55 PM,62.6,30.7,30,29.80,10.0,South,6.9,-,N/A,,Clear,190,2013-03-16 01:55:00
9:15 PM,60.4,30.2,32,29.79,10.0,SSW,5.8,-,N/A,,Clear,200,2013-03-16 02:15:00
9:35 PM,59.7,30.6,33,29.79,10.0,SSW,9.2,-,N/A,,Clear,210,2013-03-16 02:35:00
9:55 PM,58.6,30.0,34,29.79,10.0,SW,10.4,-,N/A,,Clear,230,2013-03-16 02:55:00
10:15 PM,59.9,29.7,32,29.79,10.0,SW,9.2,-,N/A,,Clear,230,2013-03-16 03:15:00
10:35 PM,59.9,29.3,31,29.78,10.0,SW,6.9,-,N/A,,Clear,220,2013-03-16 03:35:00
10:55 PM,58.8,29.1,32,29.78,10.0,SSW,8.1,-,N/A,,Clear,210,2013-03-16 03:55:00
11:15 PM,57.0,29.7,35,29.76,10.0,SSE,5.8,-,N/A,,Clear,150,2013-03-16 04:15:00
11:35 PM,50.7,30.2,45,29.77,10.0,SSW,11.5,-,N/A,,Clear,210,2013-03-16 04:35:00
11:55 PM,53.8,29.3,39,29.76,10.0,South,5.8,-,N/A,,Clear,190,2013-03-16 04:55:00